SACO Airport Information

Runway Information
Runway 05 Length 7218 ft width 148 ft
Elevation 1526 ft Threshold 840 ft Heading 43
Runway 23 Length 7218 ft Width 148 ft
Elevation 1539 ft Threshold 0 ft Heading 223
Runway 18 Length 10499 ft width 148 ft
Elevation 1604 ft Threshold 0 ft Heading 178
Runway 36 Length 10499 ft Width 148 ft
Elevation 1522 ft Threshold 0 ft Heading 358
Airport Frequencies
Type ATIS Name ATIS Frequency 114.5 MHZ
Type GND Name GND Frequency 121.75 MHZ
Type MISC Name METAR NOTA Frequency 342.55 MHZ
Type TWR Name CORDOBA TW Frequency 118.3 MHZ
Airport Navaids
Type VOR-DME Name Cordoba Frequency 114500 KHZ
Type NDB Name Cordoba Frequency 350 KHZ
Airport Weather Information & NOTAM
ADDS - METARS form results

(1533 UTC 21 April 2018)
 
METAR text: SACO 211500Z 09010KT 8000 FEW008 SCT013 25/20 Q1015
Conditions at: SACO (CORDOBA AIRPORT , AR) observed 1500 UTC 21 April 2018
Temperature: 25.0°C (77°F)
Dewpoint: 20.0°C (68°F) [RH = 74%]
Pressure (altimeter): 29.97 inches Hg (1015.0 mb)
Winds: from the E (90 degrees) at 12 MPH (10 knots; 5.2 m/s)
Visibility: 5 miles (8 km)
Ceiling: at least 12,000 feet AGL
Clouds: few clouds at 800 feet AGL
scattered clouds at 1300 feet AGL
Weather: no significant weather observed at this time